Wind_Speed
38 38 38 38 38 38 38 37 37 37 37 38 39 39 40 41 41 41 42 43 44 45 46 47 47 48 48 49 50 51 51 52 53 54 55 56 57 58 58 57 57 56
40 40 40 40 40 40 40 39 39 39 39 40 40 41 42 43 43 44 44 45 46 47 48 48 48 49 50 51 51 52 53 54 55 56 57 58 58 58 58 57 56 55
42 43 42 42 43 42 42 41 41 41 41 41 42 43 43 44 45 46 46 47 48 48 49 50 50 51 51 52 53 53 54 55 56 57 58 59 59 58 57 56 55 55
44 44 45 45 45 45 44 43 43 43 43 43 43 44 45 46 47 48 48 49 49 50 51 51 51 52 53 53 54 55 56 57 58 59 59 59 58 57 57 56 55 54
46 46 47 47 47 47 46 45 45 45 45 45 46 46 47 47 49 50 50 51 51 51 52 52 53 53 54 55 55 56 57 58 59 59 59 58 57 57 56 55 55 54
47 47 48 48 48 48 48 47 47 47 47 47 48 48 49 49 50 51 52 52 52 53 53 53 54 54 55 56 56 57 58 59 59 59 58 57 57 57 56 55 55 55
48 48 49 49 49 50 49 49 48 48 49 50 50 50 50 51 51 52 53 53 53 54 54 54 55 55 56 56 57 58 59 59 59 58 57 57 57 56 56 55 56 57
49 50 50 50 50 51 50 50 50 50 51 52 52 52 52 52 52 53 54 54 54 54 55 55 56 56 57 57 58 58 58 58 58 57 57 57 56 56 56 57 58 59
51 51 51 51 51 51 51 51 52 52 52 53 53 53 53 53 53 54 54 54 55 55 55 56 56 57 57 58 58 57 57 57 57 57 57 57 57 57 58 59 60 61
52 52 52 52 52 52 53 53 53 53 53 53 53 54 54 54 54 54 55 55 55 56 56 56 57 57 57 57 57 57 57 57 57 57 57 57 57 58 59 61 62 63
53 53 53 53 53 53 53 53 53 53 53 53 54 54 54 54 55 55 55 55 56 56 56 57 57 57 56 56 56 56 56 56 57 57 57 58 59 60 61 62 63 64
54 54 54 53 53 53 53 53 53 53 53 54 54 54 55 55 55 55 56 56 56 56 56 56 56 56 55 55 55 55 56 56 57 57 58 59 61 62 63 63 64 65
54 54 54 54 54 53 53 53 54 54 54 54 55 55 55 55 55 55 56 56 56 56 56 56 55 55 54 54 55 55 56 56 57 58 60 61 62 63 63 64 65 67
54 54 54 54 54 54 54 54 54 55 55 54 54 54 55 55 55 55 55 55 56 56 55 55 54 54 54 55 55 56 56 58 59 60 61 62 62 63 64 65 67 68
53 53 53 54 54 54 54 54 54 54 54 54 54 55 55 55 55 56 56 56 56 55 54 54 54 54 55 55 56 57 58 59 60 61 61 62 63 64 65 67 68 68
53 53 53 54 54 54 54 54 54 54 55 55 55 56 56 56 56 56 56 56 55 54 54 54 55 55 56 57 58 59 60 60 61 61 61 62 64 65 67 67 67 68
54 54 53 53 53 53 54 54 55 55 56 56 57 57 57 57 57 56 56 55 55 55 55 55 56 57 58 59 59 60 60 60 60 61 62 64 65 66 67 67 67 68
55 55 54 54 54 54 55 55 56 56 57 57 58 58 57 57 56 55 55 55 55 56 56 57 58 59 59 59 59 59 59 60 61 62 64 65 66 67 67 67 68 69
55 55 54 54 55 55 56 56 57 58 58 57 57 57 56 56 55 55 56 56 57 58 58 59 59 59 59 58 58 58 59 61 62 64 65 66 66 67 67 68 69 69
55 55 56 56 57 57 58 58 58 58 57 56 56 56 56 56 56 57 57 58 59 59 60 60 59 58 58 57 58 59 61 62 64 65 65 66 67 67 68 68 68 67
57 58 58 59 59 59 59 58 58 57 56 56 57 57 57 57 58 58 59 59 60 60 60 59 58 57 57 58 59 61 62 63 64 65 66 66 67 68 68 68 67 66
58 58 59 59 59 59 58 57 57 57 57 57 57 58 58 58 59 59 60 60 60 59 58 57 57 57 58 60 61 62 63 64 65 65 66 67 68 68 67 66 66 66
58 58 58 58 57 57 56 56 56 57 57 57 57 58 58 59 60 60 60 59 58 57 57 57 57 59 60 61 62 62 63 64 65 66 67 68 68 67 66 66 66 67
57 56 56 56 56 56 56 56 57 57 57 58 58 59 60 60 59 58 57 57 56 56 57 57 58 60 60 61 62 63 64 66 67 68 67 67 66 66 66 67 67 67
56 56 56 56 56 57 57 58 58 58 59 59 60 59 58 58 57 56 56 56 56 57 58 58 59 60 61 62 63 64 66 67 67 67 67 66 66 66 67 67 67 67
58 58 58 58 58 59 59 59 59 60 59 59 58 57 56 55 55 55 56 56 57 57 58 59 60 61 62 63 64 66 66 67 67 67 66 66 67 67 67 67 66 66
Wind_Direction
259 260 261 263 265 267 269 271 273 274 276 277 278 279 281 282 283 283 283 283 283 284 285 286 287 288 288 289 290 290 291 292 293 293 294 294 295 295 295 296 297 298
261 261 262 263 265 267 268 270 272 274 275 276 278 279 280 281 282 283 283 283 283 284 284 285 286 287 288 288 289 290 291 292 292 293 294 294 294 295 296 297 297 298
261 262 263 263 265 266 268 269 271 273 275 276 277 278 279 280 281 282 282 282 283 284 284 285 286 287 287 288 289 290 291 291 292 293 293 293 294 295 296 297 297 298
261 262 262 263 264 266 267 269 271 272 274 275 276 277 278 279 280 281 281 281 282 283 284 285 286 286 287 288 289 290 291 291 292 292 292 293 294 295 296 296 297 298
260 261 262 263 264 266 267 269 270 272 273 275 276 277 278 278 279 280 280 281 282 283 284 285 285 286 287 288 289 289 290 291 291 292 292 294 294 295 296 296 297 297
260 261 262 263 264 266 267 269 270 272 274 275 275 276 277 277 278 279 279 281 281 282 283 284 285 286 287 288 288 289 290 290 291 292 293 294 294 295 296 296 297 298
261 262 262 263 264 266 267 268 270 272 273 273 274 275 276 277 277 278 279 280 281 282 283 284 285 286 287 287 288 288 289 290 291 292 293 294 294 295 296 296 297 299
260 261 262 263 264 265 267 268 269 270 271 272 273 274 275 276 276 277 279 280 281 282 283 284 285 286 286 287 287 288 289 290 291 292 293 293 294 294 295 296 298 300
259 260 261 262 263 265 266 267 267 268 269 271 272 274 274 275 276 277 279 280 281 282 283 284 284 285 285 286 287 288 290 291 291 292 292 293 293 294 296 298 300 301
259 260 261 262 263 264 265 266 267 268 269 271 272 273 274 275 276 278 279 280 281 282 282 283 284 284 285 286 287 289 290 291 291 291 292 292 293 295 297 299 300 301
260 261 262 263 264 264 265 266 268 269 270 271 272 273 274 275 276 278 279 280 280 281 282 283 284 284 286 287 288 289 289 290 290 291 291 293 294 296 298 299 300 301
261 262 263 264 265 266 267 268 269 270 270 271 272 273 274 275 277 278 278 279 280 281 282 283 284 285 286 287 288 288 288 288 289 290 292 294 296 297 298 299 300 301
262 263 264 265 266 266 267 268 269 269 270 271 272 273 274 275 276 277 278 279 280 281 282 283 284 285 286 286 286 286 287 288 289 291 293 295 296 297 298 299 300 302
262 263 264 265 266 266 267 267 268 269 270 271 272 273 274 275 276 277 277 279 280 281 282 282 283 284 284 285 285 286 287 288 290 292 293 295 296 297 298 299 301 302
262 263 264 265 265 266 267 267 268 269 270 271 272 273 274 274 275 276 277 278 279 280 281 282 282 283 283 284 285 286 287 289 291 292 293 294 295 296 298 300 301 303
261 262 263 264 264 265 266 267 268 269 270 271 271 272 273 274 275 275 276 277 278 279 280 281 281 282 283 284 285 287 288 290 291 292 293 294 295 297 299 300 302 304
260 261 261 262 263 264 265 266 267 267 268 269 270 271 272 273 274 274 275 277 277 278 279 280 281 282 283 285 286 288 289 290 291 292 293 294 296 298 300 302 303 305
259 260 260 261 262 263 264 264 265 266 267 268 269 270 271 272 273 274 275 276 277 278 279 280 281 283 284 286 287 288 289 290 291 292 293 295 297 299 301 303 304 304
258 259 260 260 261 262 263 264 265 266 267 268 269 270 271 272 273 274 275 276 277 279 281 282 283 284 285 286 287 288 289 290 291 293 295 296 298 300 302 303 303 303
257 258 259 260 261 262 263 264 265 266 267 268 269 270 271 272 274 275 276 278 280 281 282 283 284 284 285 286 286 287 289 290 292 294 296 297 299 300 301 302 302 303
258 259 260 261 262 263 263 264 266 267 268 269 270 271 272 274 275 277 279 281 282 282 282 283 283 284 285 286 287 288 290 292 293 295 296 298 299 300 301 301 302 304
258 259 260 261 262 263 264 265 266 268 269 270 271 272 274 276 278 279 280 281 281 281 282 282 283 284 285 286 288 290 291 293 294 295 296 297 298 299 301 302 303 304
258 259 260 261 262 264 265 266 267 269 270 271 273 275 277 278 279 280 280 280 280 281 282 283 284 285 286 288 290 291 292 293 294 295 296 297 298 300 301 301 302 303
259 260 261 263 264 265 267 268 269 271 272 274 276 277 278 279 279 279 280 280 281 282 283 284 285 286 288 289 291 292 292 293 294 295 296 297 298 299 300 301 302 303
261 262 264 265 266 267 269 270 272 273 275 276 277 278 278 279 279 280 280 281 282 283 284 285 286 288 289 289 290 291 292 293 294 295 296 297 298 299 300 301 301 302
263 264 265 266 268 269 270 272 273 275 275 276 277 278 278 279 280 281 281 282 283 284 285 285 286 287 288 289 290 291 292 292 293 294 295 296 298 299 299 300 300 301
Height
5843 5843 5843 5843 5842 5842 5841 5841 5840 5840 5839 5838 5837 5836 5835 5834 5833 5832 5831 5829 5828 5826 5824 5822 5821 5819 5818 5816 5814 5812 5810 5808 5806 5804 5801 5799 5797 5794 5791 5789 5787 5784
5838 5838 5838 5838 5837 5837 5836 5836 5835 5835 5834 5834 5833 5831 5830 5829 5828 5827 5826 5824 5823 5821 5819 5817 5816 5814 5812 5810 5809 5807 5805 5803 5800 5798 5796 5793 5791 5788 5786 5783 5781 5778
5833 5833 5833 5833 5832 5832 5831 5831 5830 5830 5829 5829 5828 5827 5825 5824 5823 5822 5821 5819 5817 5816 5814 5812 5811 5809 5807 5805 5803 5801 5799 5797 5795 5792 5790 5787 5785 5782 5780 5778 5775 5773
5828 5828 5828 5827 5827 5826 5826 5826 5826 5825 5825 5824 5823 5822 5820 5819 5818 5816 5815 5814 5812 5810 5808 5807 5805 5803 5801 5799 5797 5795 5793 5791 5788 5786 5783 5781 5779 5776 5774 5772 5769 5767
5822 5822 5822 5822 5822 5821 5821 5821 5821 5820 5820 5819 5818 5816 5815 5814 5812 5810 5809 5808 5807 5805 5803 5801 5799 5797 5795 5793 5791 5789 5787 5785 5782 5780 5777 5775 5773 5770 5768 5766 5764 5761
5817 5817 5817 5817 5816 5816 5816 5816 5816 5815 5814 5813 5812 5810 5809 5808 5807 5804 5803 5802 5801 5799 5797 5795 5793 5791 5789 5787 5785 5783 5781 5778 5776 5773 5771 5769 5766 5764 5762 5760 5758 5755
5812 5811 5811 5811 5810 5810 5810 5810 5810 5809 5808 5806 5805 5804 5803 5802 5801 5799 5797 5796 5795 5793 5791 5789 5787 5785 5783 5781 5779 5776 5774 5772 5770 5767 5765 5763 5760 5758 5756 5754 5752 5749
5806 5805 5805 5805 5804 5804 5804 5804 5804 5803 5802 5800 5799 5799 5797 5796 5795 5793 5791 5790 5788 5787 5785 5783 5781 5779 5777 5775 5772 5770 5768 5766 5764 5761 5759 5757 5754 5752 5750 5748 5745 5743
5800 5800 5799 5799 5799 5799 5798 5798 5798 5797 5796 5794 5793 5793 5792 5790 5789 5787 5785 5784 5782 5780 5779 5776 5775 5772 5770 5768 5766 5764 5762 5759 5757 5755 5753 5751 5748 5746 5744 5741 5739 5736
5794 5794 5794 5793 5793 5793 5793 5792 5792 5791 5790 5789 5788 5787 5786 5784 5783 5781 5779 5778 5776 5774 5772 5770 5768 5766 5764 5762 5760 5758 5755 5753 5751 5749 5747 5745 5742 5740 5738 5735 5732 5729
5788 5788 5788 5788 5787 5787 5786 5786 5785 5785 5784 5783 5782 5780 5779 5778 5776 5775 5773 5771 5769 5767 5765 5763 5762 5760 5758 5756 5754 5751 5749 5747 5745 5743 5740 5738 5736 5734 5731 5728 5725 5722
5783 5782 5782 5782 5781 5781 5780 5780 5779 5778 5778 5777 5775 5774 5773 5771 5770 5768 5766 5764 5762 5761 5759 5757 5755 5753 5751 5749 5747 5745 5743 5741 5739 5736 5734 5732 5730 5727 5725 5722 5719 5716
5777 5776 5776 5776 5775 5775 5774 5773 5773 5772 5771 5770 5768 5767 5766 5764 5763 5761 5759 5758 5756 5754 5752 5750 5749 5747 5745 5743 5741 5739 5737 5735 5732 5730 5728 5726 5723 5721 5718 5715 5712 5709
5771 5770 5770 5769 5769 5768 5768 5767 5766 5765 5764 5763 5762 5760 5759 5758 5756 5754 5752 5751 5749 5747 5746 5744 5742 5740 5738 5736 5734 5732 5730 5728 5726 5724 5722 5719 5717 5714 5711 5708 5705 5702
5764 5764 5763 5763 5762 5762 5761 5760 5759 5758 5757 5756 5755 5754 5752 5751 5749 5747 5746 5744 5742 5741 5739 5737 5736 5734 5732 5730 5728 5726 5724 5722 5720 5718 5715 5713 5710 5707 5705 5702 5699 5696
5757 5757 5757 5756 5756 5755 5755 5754 5753 5752 5750 5749 5748 5747 5745 5744 5742 5741 5739 5737 5736 5734 5732 5731 5729 5727 5725 5723 5721 5719 5718 5716 5713 5711 5709 5706 5704 5701 5698 5695 5692 5689
5750 5750 5750 5749 5749 5748 5747 5746 5745 5744 5743 5742 5741 5740 5738 5737 5735 5734 5732 5731 5729 5727 5726 5724 5722 5720 5718 5717 5715 5713 5711 5709 5707 5705 5702 5700 5697 5694 5691 5688 5685 5682
5742 5742 5742 5742 5741 5740 5740 5739 5738 5737 5736 5735 5734 5733 5731 5730 5729 5727 5725 5724 5722 5720 5719 5717 5715 5714 5712 5710 5708 5706 5704 5702 5700 5698 5696 5693 5690 5687 5684 5681 5678 5675
5735 5735 5735 5734 5734 5733 5732 5731 5731 5730 5729 5728 5727 5725 5724 5723 5722 5720 5718 5717 5715 5714 5712 5710 5709 5707 5705 5703 5701 5699 5697 5696 5694 5691 5689 5686 5683 5680 5677 5675 5672 5669
5727 5727 5727 5726 5726 5725 5725 5724 5723 5722 5721 5720 5720 5719 5718 5716 5715 5713 5712 5710 5709 5707 5705 5703 5701 5699 5698 5696 5694 5692 5691 5689 5687 5684 5682 5679 5676 5673 5671 5668 5665 5662
5720 5720 5719 5719 5718 5718 5717 5717 5716 5716 5715 5714 5713 5712 5711 5710 5708 5707 5706 5704 5702 5700 5698 5696 5694 5692 5691 5689 5687 5686 5684 5682 5680 5677 5674 5672 5669 5666 5664 5661 5658 5655
5712 5712 5712 5711 5711 5711 5711 5710 5710 5709 5708 5707 5707 5706 5705 5704 5702 5701 5699 5697 5695 5693 5691 5689 5687 5685 5684 5682 5680 5679 5677 5674 5672 5670 5667 5665 5662 5660 5657 5654 5650 5647
5706 5706 5705 5705 5705 5705 5705 5704 5704 5703 5702 5701 5700 5700 5698 5697 5695 5694 5692 5689 5687 5685 5684 5682 5680 5679 5677 5676 5674 5672 5669 5667 5665 5663 5660 5658 5655 5653 5649 5646 5643 5640
5699 5699 5699 5699 5699 5698 5698 5697 5697 5696 5695 5695 5694 5693 5691 5690 5688 5686 5684 5682 5681 5679 5677 5676 5674 5672 5670 5669 5667 5664 5662 5660 5657 5655 5653 5651 5648 5645 5642 5639 5636 5633
5693 5693 5693 5692 5692 5691 5691 5690 5690 5689 5688 5688 5687 5685 5684 5682 5681 5679 5678 5676 5674 5672 5671 5669 5667 5665 5663 5661 5659 5657 5655 5652 5650 5648 5646 5644 5641 5638 5635 5632 5629 5626
5686 5686 5686 5685 5684 5684 5684 5683 5683 5682 5681 5680 5679 5678 5676 5675 5674 5672 5671 5669 5668 5666 5664 5662 5660 5658 5656 5654 5652 5650 5647 5645 5642 5640 5638 5636 5634 5631 5628 5625 5622 5619